www.pogodaiklimat.ru

Погода и климат >> Архив погоды >> Ирак >> Кут-аль-Хай


ПОГОДА в Кут-аль-Хай

  • Прогноз погоды в Кут-аль-Хай
  • Монитор погоды в Кут-аль-Хай

АРХИВ ПОГОДЫ в Кут-аль-Хай

Время (UTC), дата Ветер
(напр.,м/с)
 
Видим.   Явления Облачность Т
(С)
Тd
(С)
f
(%)
Тe
(С)
Тes
(С)
Комфортность P
(гПа)
Po
(гПа)
Тmin
(С)
Tmax
(С)
R
(мм)
R24
(мм)
S
(см)
15 9.07 З 4 10 км ясно +41.8 +15.4 22 +43 +44 опасность
перегрева
996.0 994.4
18 9.07 З 2 10 км ясно +36.5 +16.8 31 +39 +39 очень
душно
996.6 995.0 +43.5
21 9.07 З 3 10 км ясно +32.7 +16.2 37 +35 +35 душно 995.9 994.2
06 10.07 З 4 10 км ясно +36.8 +13.2 24 +37 +46 очень
жарко
995.3 993.7 +29.1
09 10.07 З 7 10 км ясно +43.6 +11.9 16 +43 +49 опасность
перегрева
994.5 992.9
12 10.07 З 7 10 км ясно +45.8 +11.7 14 +45 +49 опасность
перегрева
992.9 991.3
15 10.07 З 6 10 км ясно +43.5 +13.1 17 +43 +44 опасность
перегрева
993.0 991.4
18 10.07 З 4 10 км ясно +37.0 +13.5 25 +37 +37 очень
жарко
994.2 992.6 +46.0
21 10.07 З 3 10 км ясно +34.8 +12.1 25 +35 +35 очень
жарко
994.5 992.8
00 11.07 СЗ 3 10 км ясно +33.3 +10.4 25 +33 +33 жарко 994.1 992.4
03 11.07 З 5 10 км ясно +30.7 +10.2 28 +30 +31 жарко 995.1 993.4
06 11.07 З 4 10 км ясно +36.6 +13.8 26 +37 +46 очень
жарко
996.6 995.0 +30.5
09 11.07 З 3 10 км ясно +43.4 +17.5 23 +46 +64 опасность
перегрева
996.4 994.8
12 11.07 З 4 10 км ясно +45.6 +15.6 18 +47 +55 опасность
перегрева
995.5 993.9
15 11.07 З 3 10 км ясно +43.0 +18.4 24 +46 +47 опасность
перегрева
995.8 994.2
18 11.07 З 3 10 км ясно +37.0 +16.9 31 +40 +40 очень
душно
997.4 995.8 +46.0
21 11.07 З 2 10 км ясно +32.8 +16.6 38 +36 +36 очень
душно
997.5 995.8
00 12.07 З 2 10 км ясно +30.4 +17.2 45 +34 +34 очень
душно
997.1 995.4
03 12.07 З 2 10 км ясно +31.0 +13.8 35 +32 +33 жарко 997.9 996.2
09 12.07 З 9 10 км ясно +45.0 +16.0 19 +47 +49 опасность
перегрева
998.9 997.3
15 12.07 З 5 10 км ясно +42.6 +18.7 25 +46 +46 опасность
перегрева
998.4 1000.4
18 12.07 З 2 10 км ясно +38.0 +15.3 26 +39 +39 очень
душно
999.0 997.4 +45.6
21 12.07 З 2 10 км ясно +35.0 +14.8 30 +36 +36 очень
жарко
999.1 997.4
00 13.07 З 4 10 км ясно +31.8 +9.7 26 +31 +31 жарко 998.7 997.0
06 13.07 З 6 10 км ясно +38.6 +12.2 21 +38 +43 очень
жарко
1000.1 998.5 +30.8
09 13.07 З 7 10 км ясно +43.8 +12.0 16 +43 +49 опасность
перегрева
999.8 998.2
15 13.07 З 8 10 км ясно +41.6 +11.4 17 +41 +41 опасность
перегрева
998.9 997.3
18 13.07 СЗ 5 10 км ясно +35.6 +12.4 25 +36 +36 очень
жарко
1000.2 998.5 +44.6
00 14.07 З 5 10 км ясно +29.5 +12.1 34 +30 +30 жарко 999.5 997.8
06 14.07 СЗ 5 10 км ясно +37.2 +15.5 28 +39 +46 очень
душно
1000.5 998.8 +28.0
09 14.07 З 9 10 км ясно +41.4 +10.4 16 +40 +42 очень
жарко
1000.0 998.4
12 14.07 З 4 10 км ясно +43.0 +11.8 16 +42 +50 опасность
перегрева
999.1 997.5
15 14.07 З 7 10 км ясно +40.6 +11.8 18 +40 +40 очень
жарко
999.1 997.5
18 14.07 З 5 10 км ясно +35.3 +11.9 24 +35 +35 очень
жарко
1000.6 998.9 +43.4
21 14.07 З 5 10 км ясно +32.2 +11.9 29 +32 +32 жарко 1000.1 998.4
00 15.07 З 3 10 км ясно +30.3 +12.1 33 +31 +31 жарко 999.3 997.6
03 15.07 СЗ 5 10 км ясно +28.8 +12.0 35 +30 +30 жарко 999.7 998.0
06 15.07 СЗ 7 10 км ясно +38.0 +10.0 18 +36 +40 очень
жарко
1000.3 998.7 +28.4
09 15.07 З 6 10 км ясно +42.0 +7.9 13 +40 +48 очень
жарко
1000.0 998.4
12 15.07 З 8 10 км ясно +43.4 +9.1 13 +42 +44 опасность
перегрева
998.4 996.8
15 15.07 З 4 10 км ясно +42.0 +9.9 15 +40 +41 очень
жарко
997.4 995.8
18 15.07 З 5 10 км ясно +36.2 +11.6 23 +36 +36 очень
жарко
998.1 996.4 +43.8
21 15.07 З 5 10 км ясно +33.0 +11.9 28 +33 +33 жарко 997.9 996.2
00 16.07 З 5 10 км ясно +32.4 +10.7 26 +32 +32 жарко 997.3 995.6
03 16.07 З 4 10 км ясно +31.4 +10.8 28 +31 +32 жарко 997.8 996.1
06 16.07 З 7 10 км ясно +39.4 +11.5 19 +39 +42 очень
жарко
998.9 997.3 +30.8
09 16.07 З 10 8000 м пыльный позёмок ясно +42.5 +9.4 14 +41 +42 опасность
перегрева
999.5 997.9

 

Местоположение метеостанции Кут-аль-Хай (Ирак): широта 32.17 долгота 46.05 высота над уровнем моря 15 м.

В архиве по умолчанию представлена погода в Кут-аль-Хай за последнюю неделю. Архивные данные за месяц целиком и за предыдущие месяцы, начиная с января 2011 года, Вы можете получить, выбрав интересующий диапазон дат из раскрывающегося списка и нажав кнопку "Ввод!".


*Определитесь, кто Вы:
робот инопланетянин человек

Внимание! Время в таблицах - всемирное. Для получения местного времени необходимо прибавить поправку, которая равна 3 ч.

Смотрите также архив погоды в соседних городах и на ближайших метеорологических станциях:

Погода в Убайда Бин Аль Джарра (Ирак) (45 км)
Погода в Рифаи (Ирак) (50 км)
Погода в Али Аль-Гарби (Ирак) (71 км)
Погода в Дивании (Ирак) (103 км)
Погода в Бадре (Ирак) (104 км)
Погода в Амаре (Ирак) (111 км)
Погода в Эс-Самаве (Ирак) (122 км)
Погода в Насирии (Ирак) (122 км)
Погода в Эль-Азизии (Ирак) (124 км)
Погода в Хелле (Ирак) (154 км)

Пояснения к столбцам:

Ветер - указаны скорость ветра в м/с - средняя за 10 мин, порывы в срок и между сроками (в фигурных скобках) и направление, откуда дует ветер: С - северный, СВ - северо-восточный, В - восточный, ЮВ - юго-восточный, Ю - южный, ЮЗ - юго-западный, З - западный, СЗ - северо-западный.
Видимость - горизонтальная дальность видимости в метрах или километрах. При видимости от 1 до 10 км при отсутствии осадков обычно наблюдается дымка, при ухудшении видимости до 1 км и менее - туман. В сухую погоду видимость может ухудшаться дымом, пылью или мглою.
Явления - указаны атмосферные явления, наблюдавшиеся в срок или в последний час перед сроком; фигурными скобками обозначены явления, наблюдавшиеся между сроками (за 1-3 часа до срока); квадратными скобками обозначены град или гололедные отложения с указанием их диаметра в мм.
Облачность - указаны через наклонную черту общая и нижняя облачность в баллах и высота нижней границы облаков в метрах; квадратными скобками обозначены формы облаков: Ci - перистые, Cs - перисто-слоистые, Cc - перисто-кучевые, Ac - высококучевые, As - высокослоистые, Sc - слоисто-кучевые, Ns - слоисто-дождевые, Cu - кучевые, Cb - кучево-дождевые. Подробнее классификацию облаков см. в Атласе облаков (PDF).
T - Температура воздуха - температура, измеренная на высоте 2 м над землей.
Td - Температура точки росы - температура, при понижении до которой содержащийся в воздухе водяной пар достигнет насыщения.
f - Относительная влажность воздуха - влажноcть воздуха, измеренная на высоте 2 м над землей.
Te - Эффективная температура - температура, которую ощущает одетый по сезону человек в тени. Характеристика душности погоды. При расчете учитывается влияние влажности воздуха и скорости ветра на теплоощущения человека.
Tes - Эффективная температура на солнце - температура, которую ощущает человек, с поправкой на солнечный нагрев. Характеристика знойности погоды. Зависит от высоты солнца над горизонтом, облачности и скорости ветра. Ночью, в пасмурную погоду, а также при ветре 12 м/с и более поправка равна нулю.
P - Атмосферное давление - приведенное к уровню моря атмосферное давление.
Po - Атмосферное давление - измеренное на уровне метеостанции атмосферное давление.
Tmin - Минимальная температура - минимум температуры воздуха на высоте 2 м над землей.
Tmax - Максимальная температура - максимум температуры воздуха на высоте 2 м над землей.
R - Количество осадков - Количество выпавших осадков за период времени, мм. При наведении курсора мыши на число - период времени, за который выпало указанное количество осадков.
R24 - Количество осадков - Количество выпавших осадков за 24 часа, мм.
S - Снежный покров - Высота снежного покрова, см. При наведении курсора мыши на число - состояние снежного покрова и степень покрытия местности в баллах.